#timestamp,LO_Frequency,Hit,StdDev 
1619143215.6,286047007.0,Y
1619143235.4,286047003.5,P
1619143255.3,286046999.7,N
1619143275.1,286047003.2,N
1619143295.9,286047002.1,N
1619143315.7,286046999.9,N
1619143335.5,286046996.5,N
1619143355.4,286046997.0,N
1619143375.2,286046998.3,N
1619143395.0,286046999.0,N
1619143395.9,286046999.0,N
1619143415.8,286047000.0,N
1619143435.6,286046999.8,N
1619143455.5,286047002.7,N
1619143475.3,286046998.6,N
1619143495.1,286046997.2,N
1619143515.9,286046997.0,N
1619143535.7,286046996.6,N
1619143555.6,286046998.1,N
1619143575.4,286046998.2,N
1619143595.2,286047001.0,N
1619143615.1,286047002.8,N
1619143616.0,286047002.8,N
1619143635.8,286047002.3,N
1619143655.6,286047003.8,N
1619143675.5,286047002.7,N
1619143695.3,286047001.1,N
1619143715.2,286046998.5,N
1619143735.9,286047000.7,N
1619143755.7,286047000.7,N
1619143775.6,286047001.2,N
1619143795.4,286047001.0,N
1619143815.2,286046998.7,N
1619143835.1,286047001.1,N
1619143836.0,286047001.1,N
1619143855.8,286047001.1,N
1619143875.7,286046998.8,N
1619143895.5,286046998.3,N
1619143915.3,286047000.6,N
1619143935.2,286047000.1,N
1619143955.9,286047002.7,N
1619143975.7,286047004.4,N
1619143995.6,286047000.3,N
1619144015.4,286046999.2,N
1619144035.3,286046997.9,N
1619144055.1,286046994.9,N
1619144056.0,286046994.9,N
1619144075.8,286046998.0,N
1619144095.7,286046995.1,N
1619144115.5,286046995.1,N
1619144135.3,286046997.8,N
1619144155.2,286046995.6,N
1619144175.0,286046993.9,N
1619144175.9,286046993.9,N
1619144195.8,286046994.2,N
1619144215.6,286046995.7,N
1619144235.4,286046997.0,N
1619144255.3,286046998.5,N
1619144275.1,286047001.1,N
1619144295.8,286047002.8,N
1619144315.7,286047001.2,N
1619144335.5,286046999.5,N
1619144355.4,286046996.8,N
1619144375.2,286046999.2,N
1619144395.0,286046998.6,N
1619144395.9,286046998.6,N
1619144415.8,286047000.9,N
1619144435.6,286046999.9,N
1619144455.4,286047000.6,N
1619144475.3,286046998.7,N
1619144495.1,286047002.4,N
1619144515.9,286047002.9,N
1619144535.7,286047003.4,N
1619144555.5,286047001.8,N
1619144575.4,286047004.1,N
1619144595.2,286047001.6,N
1619144615.0,286047004.6,N
1619144615.9,286047004.6,N
1619144635.8,286047004.1,N
1619144655.6,286047005.3,N
1619144675.5,286047003.4,N
1619144695.3,286047002.2,N
1619144715.1,286047000.2,N
1619144735.9,286047000.6,N
1619144755.7,286047002.2,N
1619144775.5,286047001.5,N
1619144795.4,286047002.1,N
1619144815.2,286047003.5,N
1619144835.1,286047002.4,N
1619144836.0,286047002.4,N
1619144855.8,286047000.3,N
1619144875.6,286046996.5,N
1619144895.5,286046997.3,N
1619144915.3,286046997.1,N
1619144935.1,286046998.3,N
1619144955.9,286046999.1,N
1619144975.7,286046997.1,N
1619144995.6,286046999.2,N
1619145015.4,286047001.1,N
1619145035.2,286047001.9,N
1619145055.1,286047006.0,N
1619145056.0,286047006.0,N
1619145075.8,286047001.3,N
1619145095.7,286047001.8,N
1619145115.5,286047002.5,N
1619145135.3,286047002.7,N
1619145155.2,286047000.8,N
1619145175.0,286046999.3,N
1619145175.9,286046999.3,N
1619145195.7,286046996.5,N
1619145215.6,286047000.7,N
1619145235.4,286047003.0,N
1619145255.3,286047003.3,N
1619145275.1,286047002.1,N
1619145276.0,286047002.1,N
1619145295.8,286047000.9,N
1619145315.7,286047000.0,N
1619145335.5,286047002.8,N
1619145355.3,286047000.3,N
1619145375.2,286047000.6,N
1619145395.0,286047000.0,N
1619145395.9,286047000.0,N
1619145415.8,286047000.6,N
1619145435.6,286047000.4,N
1619145455.4,286047000.6,N
1619145475.3,286047000.7,N
1619145495.1,286047003.2,N
1619145515.8,286047005.2,N
1619145535.7,286047003.2,N
1619145555.5,286047005.8,N
1619145575.4,286047005.8,N
1619145595.2,286047003.0,N
1619145615.0,286047005.6,N
1619145615.9,286047005.6,N
1619145635.8,286047004.0,N
1619145655.6,286047004.2,N
1619145675.4,286047002.7,N
1619145695.3,286047001.0,N
1619145715.1,286046998.6,N
1619145735.9,286047002.6,N
1619145755.7,286047000.2,N
1619145775.5,286047000.4,N
1619145795.4,286047001.1,N
1619145815.2,286046999.7,N
1619145835.0,286046999.6,N
1619145835.9,286046999.6,N
1619145855.8,286046999.1,N
1619145875.6,286046998.4,N
1619145895.5,286046997.1,N
1619145915.3,286046997.2,N
1619145935.1,286047000.6,N
1619145955.9,286047002.4,N
1619145975.7,286047001.5,N
1619145995.5,286047001.9,N
1619146015.4,286046998.6,N
1619146035.2,286046999.5,N
1619146055.0,286046999.1,N
1619146056.0,286046999.1,N
1619146075.8,286046997.0,N
1619146095.6,286046998.0,N
1619146115.5,286046998.5,N
1619146135.3,286046998.1,N
1619146155.1,286046999.1,N
1619146175.9,286046998.2,N
1619146195.7,286047001.0,N
1619146215.5,286047000.8,N
1619146235.4,286046998.2,N
1619146255.2,286046996.6,N
1619146275.1,286046998.4,N
1619146276.0,286046998.4,N
1619146295.8,286046999.2,N
1619146315.6,286046998.9,N
1619146335.5,286046996.9,N
1619146355.3,286046995.1,Y
1619146375.1,286046997.7,P
1619146395.9,286046994.9,P
1619146415.7,286046997.6,N
1619146435.6,286047000.8,N
1619146455.4,286047002.5,N
1619146475.2,286047002.1,N
1619146495.1,286047000.1,N
1619146496.0,286047000.1,N
1619146515.8,286047003.7,N
1619146535.6,286047002.1,N
1619146555.5,286047000.0,N
1619146575.3,286047000.8,N
1619146595.2,286047001.0,N
1619146615.9,286047000.4,N
1619146635.7,286046998.2,N
1619146655.6,286046999.2,N
1619146675.4,286046995.0,N
1619146695.2,286046996.7,N
1619146715.1,286046999.5,N
1619146716.0,286046999.5,N
1619146735.8,286046999.2,N
1619146755.7,286046997.3,N
1619146775.5,286046998.7,N
1619146795.3,286047000.0,N
